Regional Weather Roundup
Issued by NWS Charleston, SC

Current Version | Previous Version | Text Only | Print | Product List | Glossary Off
Versions: 1 2 3 4 5 6 7 8 9 10 11 12 13 14 15 16 17 18 19 20 21 22 23 24 25 26 27 28 29 30 31 32 33 34 35 36 37 38 39 40 41 42 43 44 45 46 47 48 49 50
000 ASUS42 KCHS 250812 RWRCHS REGIONAL WEATHER ROUNDUP NATIONAL WEATHER SERVICE CHARLESTON SC 400 AM EDT MON MAY 25 2015 NOTE: "FAIR" INDICATES FEW OR NO CLOUDS BELOW 12,000 FEET WITH NO SIGNIFICANT WEATHER AND/OR OBSTRUCTIONS TO VISIBILITY. NOT ALL STATIONS ARE QUALITY CONTROLLED BY THE NATIONAL WEATHER SERVICE. USE DATA WITH CAUTION...ESPECIALLY DEWPOINT OBSERVATIONS. SCZ027-030-031-034>040-042>050-250900- ...SOUTHEAST SOUTH CAROLINA... CITY SKY/WX TMP DP RH WIND PRES REMARKS N CHARLESTON PTCLDY 64 59 83 NE5 30.28F WATERFRONT PAR N/A 74 64 70 E14 30.25F MOUNT PLEASANT FAIR 68 61 77 E3 30.28F JOHNS ISLAND SUNNY 72 63 73 E7 30.28S PINOPOLIS N/A 68 63 83 VRB2 30.21S MONCKS CORNER FAIR 61 57 88 E5 30.29S SUMMERVILLE FAIR 59 59 100 CALM 30.29S BEAUFORT MCAS CLOUDY 75 65 70 E7 30.26S BEAUFORT ARPT CLOUDY 73 64 73 CALM 30.26S HILTON HEAD IS PTCLDY 75 66 73 NE6 30.27S WALTERBORO MOSUNNY 61 59 94 E3 30.29R ALLENDALE PTSUNNY 66 61 82 CALM 30.27S HAZE ...SOUTHERN MIDLANDS AND PEE DEE... CITY SKY/WX TMP DP RH WIND PRES REMARKS GEORGETOWN NOT AVBL KINGSTREE NOT AVBL ORANGEBURG CLEAR 63 57 81 CALM 30.29S BARNWELL FAIR 64 61 88 CALM 30.29S AIKEN FAIR 59 55 88 NE3 30.32S MANNING FAIR 55 54 94 CALM 30.30S COLUMBIA CLEAR 64 57 78 CALM 30.29F SUMTER CLEAR 59 55 87 NE3 30.29S FLORENCE CLEAR 59 56 89 CALM 30.31S MYRTLE BEACH MOCLDY 72 57 60 E9 30.32S N MYRTLE BEACH PTCLDY 72 57 59 SE3 30.31S $$ GAZ063-065-086>088-099>101-113>116-118-119-134>141-150-250900- ...SOUTHEAST GEORGIA... CITY SKY/WX TMP DP RH WIND PRES REMARKS SAVANNAH ARPT MOCLDY 74 63 68 E9 30.24F HUNTER AAF MOCLDY 75 67 75 E10 30.22S FORT STEWART PTCLDY 73 66 79 E8 30.21S STATESBORO MOCLDY 67 66 95 CALM 30.25S SYLVANIA PTSUNNY 68 65 91 E5 30.26S CLAXTON FAIR 66 64 94 CALM 30.24S ...CSRA...CENTRAL AND FAR SOUTHEAST GEORGIA... CITY SKY/WX TMP DP RH WIND PRES REMARKS THOMSON CLEAR 64 62 94 CALM 30.32S AUGUSTA-BUSH CLEAR 59 58 96 CALM 30.28R AUGUSTA-DANIEL CLEAR 68 59 73 E5 30.29S SWAINSBORO CLOUDY 72 66 83 E5 30.26S VIDALIA CLOUDY 70 64 83 E3 30.24F EASTMAN CLOUDY 68 68 100 E5 30.25F HAZLEHURST CLOUDY 71 67 89 CALM 30.23S ALMA CLOUDY 68 66 93 CALM 30.22S WAYCROSS MOCLDY 69 69 100 CALM 30.21F JESUP CLOUDY 72 70 94 CALM 30.22S BAXLEY CLOUDY 70 68 94 CALM 30.22F BRUNSWICK N/A 77 68 73 E10 30.23S SAINT SIMONS NOT AVBL $$ SCZ027-028-034-036>038-045-046-048>050-GAZ119-141-250900- ...LAKE AND SUPPLEMENTAL COASTAL OBSERVATIONS... STATION/POSITION TIME TEMP WIND PRES WAVE SWELL AIR SEA DIR/SP/G HT/PER HT/PER/DIR (UTC) (F) (DEG/KT/KT) (MB) (FT/S) (FT/S/D) UPR LAKE MARION NOT AVBL WINYAH BAY 0645 73 120/ 8 1025.0 LAKE MURRAY 0700 69 80/ 5/ 7 1025.4F ACE BASIN NERRS NOT AVBL FORT PULASKI 0700 75 77 110/ 10/ 13 1024.6F SAPELO ISLAND 0700 76 100/ 7 1023.0F $$ ANZ835-935-AMZ111-154-330-350-352-354-370-450-454-472-250900- ...C-MAN AND BUOY OBSERVATIONS... STATION/POSITION TIME TEMP WIND PRES WAVE SWELL AIR SEA DIR/SP/G HT/PER HT/PER/DIR (UTC) (F) (DEG/KT/KT) (MB) (FT/S) (FT/S/D) BUOY 41004 0750 74 75 110/ 14/ 16 1024.6F 5/ 7 3/ 7 BUOY 41008 0750 75 75 100/ 10/ 12 1023.5F 6/ 8 5/100/ 8 FOLLY BEACH CMAN 0800 74 100/ 13/ 15 1025.2F CAPERS NEARSHORE 0708 74 140/ 12/ 17 1025.4F FRIPP NEARSHORE 0700 75 130/ 16/ 19 1023.7F STATION/POSITION TIME TEMP WIND PRES WAVE SWELL AIR SEA DIR/SP/G HT/PER HT/PER/DIR (UTC) (F) (DEG/KT/KT) (MB) (FT/S) (FT/S/D) 5E ST. MARYS GA 0721 77 N/A 5/ 6 FRYING PAN BUOY 0750 74 74 110/ 10/ 12 1026.9S 4/ 7 3/130/ 7 BUOY 41025 0750 73 77 170/ 8/ 10 1027.3R 2/ 6 2/ 60/ 6 CAPE LOOKOUT NC 0800 72 140/ 7/ 8 1027.0R BUOY 41002 0750 73 74 100/ 12/ 16 1026.1F 4/ 6 2/100/ 6 BUOY 41010 0720 78 79 100/ 12/ 14 1022.2F ST AUGUSTINE FL 0800 77 77 150/ 12/ 13 1023.0S $$

USA.gov is the U.S. government's official web portal to all federal, state and local government web resources and services.